When you browse on this site, cookies collect data to enhance your experience and personalize the content and advertising you see.
Visit our Privacy Policy to learn more. By continuing to use the site, you agree to this use of cookies and data.
  • In Österreich
  • Länderverzeichnis
  • Für 7 Tage
  • Wassertemperatur
  • Satellitenkarten
  • Wetterkarte
  • News
  • Widgets
  • user-avatar
    Anmelden

    Stündliche Wetter Wadzhda

    Heute, 21 Januar, Montag

    Zeit Temperatur Niederschläge Wind Luftdruck Luftfeuchtigkeit
    00:00 +8°C° 0 mm 3 m/S 713 mmHg 89%
    01:00 +8°C° 0.5 mm 3 m/S 713 mmHg 89%
    02:00 +7°C° 0.5 mm 3 m/S 713 mmHg 88%
    03:00 +7°C° 0.5 mm 3 m/S 713 mmHg 87%
    04:00 +7°C° 0.4 mm 3 m/S 713 mmHg 85%
    05:00 +7°C° 0.4 mm 2 m/S 713 mmHg 84%
    06:00 +7°C° 0.4 mm 2 m/S 713 mmHg 82%
    07:00 +8°C° 0.1 mm 2 m/S 713 mmHg 78%
    08:00 +8°C° 0.1 mm 2 m/S 713 mmHg 75%
    09:00 +8°C° 0.1 mm 2 m/S 713 mmHg 71%
    10:00 +9°C° 0 mm 3 m/S 714 mmHg 65%
    11:00 +10°C° 0 mm 4 m/S 714 mmHg 60%
    12:00 +10°C° 0 mm 5 m/S 714 mmHg 54%
    13:00 +10°C° 0.1 mm 6 m/S 714 mmHg 55%
    14:00 +10°C° 0.1 mm 6 m/S 713 mmHg 56%
    15:00 +10°C° 0.1 mm 7 m/S 713 mmHg 57%
    16:00 +9°C° 0.1 mm 5 m/S 713 mmHg 63%
    17:00 +8°C° 0.1 mm 4 m/S 713 mmHg 69%
    18:00 +7°C° 0.1 mm 3 m/S 713 mmHg 76%
    19:00 +7°C° 0.1 mm 3 m/S 714 mmHg 80%
    20:00 +6°C° 0.1 mm 2 m/S 714 mmHg 84%
    21:00 +7°C° 0.1 mm 1 m/S 714 mmHg 88%
    22:00 +6°C° 0.1 mm 1 m/S 714 mmHg 88%
    23:00 +6°C° 0.1 mm 1 m/S 715 mmHg 88%

    Morgen, 22 Januar, Dienstag

    Zeit Temperatur Niederschläge Wind Luftdruck Luftfeuchtigkeit
    00:00 +6°C° 0.1 mm 1 m/S 715 mmHg 88%
    01:00 +6°C° 0 mm 1 m/S 715 mmHg 87%
    02:00 +5°C° 0 mm 1 m/S 715 mmHg 86%
    03:00 +5°C° 0 mm 1 m/S 714 mmHg 84%
    04:00 +4°C° 0 mm 2 m/S 714 mmHg 80%
    05:00 +5°C° 0 mm 2 m/S 714 mmHg 75%
    06:00 +5°C° 0 mm 2 m/S 714 mmHg 71%
    07:00 +6°C° 0 mm 2 m/S 715 mmHg 69%
    08:00 +5°C° 0 mm 3 m/S 715 mmHg 66%
    09:00 +7°C° 0 mm 3 m/S 715 mmHg 64%
    10:00 +7°C° 0 mm 4 m/S 715 mmHg 58%
    11:00 +8°C° 0 mm 5 m/S 715 mmHg 51%
    12:00 +9°C° 0 mm 6 m/S 714 mmHg 45%
    13:00 +9°C° 0 mm 6 m/S 714 mmHg 45%
    14:00 +9°C° 0 mm 7 m/S 713 mmHg 45%
    15:00 +10°C° 0 mm 7 m/S 712 mmHg 45%
    16:00 +9°C° 0 mm 6 m/S 712 mmHg 50%
    17:00 +8°C° 0 mm 6 m/S 712 mmHg 55%
    18:00 +7°C° 0 mm 5 m/S 712 mmHg 59%
    19:00 +7°C° 0.1 mm 5 m/S 712 mmHg 63%
    20:00 +7°C° 0.1 mm 6 m/S 712 mmHg 67%
    21:00 +6°C° 0.1 mm 7 m/S 712 mmHg 70%
    22:00 +6°C° 0.5 mm 7 m/S 712 mmHg 72%
    23:00 +6°C° 0.5 mm 8 m/S 712 mmHg 74%

    übermorgen, 23 Januar, Mittwoch

    Zeit Temperatur Niederschläge Wind Luftdruck Luftfeuchtigkeit
    00:00 +6°C° 0.5 mm 8 m/S 711 mmHg 76%
    01:00 +6°C° 0.3 mm 7 m/S 711 mmHg 76%
    02:00 +6°C° 0.3 mm 7 m/S 710 mmHg 76%
    03:00 +7°C° 0.3 mm 6 m/S 710 mmHg 77%
    04:00 +7°C° 0.2 mm 6 m/S 710 mmHg 79%
    05:00 +7°C° 0.2 mm 6 m/S 710 mmHg 81%
    06:00 +7°C° 0.2 mm 6 m/S 710 mmHg 83%
    07:00 +7°C° 0.1 mm 6 m/S 711 mmHg 82%
    08:00 +6°C° 0.1 mm 7 m/S 711 mmHg 80%
    09:00 +6°C° 0.1 mm 7 m/S 711 mmHg 79%
    10:00 +7°C° 0 mm 8 m/S 711 mmHg 71%
    11:00 +9°C° 0 mm 8 m/S 711 mmHg 63%
    12:00 +11°C° 0 mm 8 m/S 711 mmHg 55%
    13:00 +11°C° 0 mm 9 m/S 710 mmHg 51%
    14:00 +11°C° 0 mm 10 m/S 710 mmHg 47%
    15:00 +12°C° 0 mm 11 m/S 709 mmHg 44%
    16:00 +11°C° 0 mm 9 m/S 710 mmHg 51%
    17:00 +10°C° 0 mm 8 m/S 710 mmHg 57%
    18:00 +8°C° 0 mm 7 m/S 710 mmHg 64%
    19:00 +8°C° 0 mm 7 m/S 710 mmHg 68%
    20:00 +8°C° 0 mm 7 m/S 710 mmHg 71%
    21:00 +8°C° 0 mm 7 m/S 710 mmHg 75%
    22:00 +8°C° 0.1 mm 7 m/S 710 mmHg 75%
    23:00 +8°C° 0.1 mm 6 m/S 710 mmHg 74%

    24 Januar, Donnerstag

    Zeit Temperatur Niederschläge Wind Luftdruck Luftfeuchtigkeit
    00:00 +8°C° 0.1 mm 5 m/S 710 mmHg 73%
    01:00 +7°C° 0 mm 5 m/S 710 mmHg 77%
    02:00 +7°C° 0 mm 4 m/S 709 mmHg 80%
    03:00 +7°C° 0 mm 3 m/S 709 mmHg 83%
    04:00 +7°C° 0 mm 3 m/S 708 mmHg 83%
    05:00 +7°C° 0 mm 3 m/S 708 mmHg 83%
    06:00 +7°C° 0 mm 3 m/S 708 mmHg 84%
    07:00 +8°C° 0.3 mm 3 m/S 708 mmHg 84%
    08:00 +8°C° 0.3 mm 3 m/S 709 mmHg 84%
    09:00 +8°C° 0.3 mm 3 m/S 709 mmHg 84%
    10:00 +8°C° 0.1 mm 4 m/S 709 mmHg 82%
    11:00 +8°C° 0.1 mm 5 m/S 709 mmHg 80%
    12:00 +9°C° 0.1 mm 5 m/S 709 mmHg 79%
    13:00 +9°C° 0.1 mm 5 m/S 708 mmHg 79%
    14:00 +9°C° 0.1 mm 5 m/S 708 mmHg 80%
    15:00 +9°C° 0.1 mm 5 m/S 707 mmHg 81%
    16:00 +9°C° 0.5 mm 6 m/S 708 mmHg 84%
    17:00 +9°C° 0.5 mm 7 m/S 708 mmHg 87%
    18:00 +9°C° 0.5 mm 7 m/S 708 mmHg 90%
    19:00 +8°C° 0.4 mm 6 m/S 709 mmHg 87%
    20:00 +8°C° 0.4 mm 5 m/S 710 mmHg 84%
    21:00 +7°C° 0.4 mm 4 m/S 711 mmHg 81%
    22:00 +6°C° 0 mm 4 m/S 711 mmHg 77%
    23:00 +5°C° 0 mm 3 m/S 711 mmHg 73%

    25 Januar, Freitag

    Zeit Temperatur Niederschläge Wind Luftdruck Luftfeuchtigkeit
    00:00 +5°C° 0 mm 3 m/S 711 mmHg 69%
    01:00 +5°C° 0 mm 2 m/S 711 mmHg 68%
    02:00 +5°C° 0 mm 2 m/S 711 mmHg 66%
    03:00 +5°C° 0 mm 1 m/S 711 mmHg 64%
    04:00 +5°C° 0 mm 1 m/S 711 mmHg 64%
    05:00 +4°C° 0 mm 1 m/S 711 mmHg 63%
    06:00 +4°C° 0 mm 1 m/S 712 mmHg 63%
    07:00 +5°C° 0 mm 1 m/S 712 mmHg 58%
    08:00 +6°C° 0 mm 1 m/S 713 mmHg 53%
    09:00 +8°C° 0 mm 1 m/S 714 mmHg 49%
    10:00 +9°C° 0 mm 1 m/S 714 mmHg 47%
    11:00 +9°C° 0 mm 2 m/S 714 mmHg 46%
    12:00 +10°C° 0 mm 2 m/S 715 mmHg 45%
    13:00 +10°C° 0 mm 2 m/S 714 mmHg 41%
    14:00 +10°C° 0 mm 3 m/S 714 mmHg 38%
    15:00 +10°C° 0 mm 3 m/S 714 mmHg 34%
    16:00 +9°C° 0 mm 2 m/S 714 mmHg 39%
    17:00 +8°C° 0 mm 2 m/S 714 mmHg 44%
    18:00 +7°C° 0 mm 1 m/S 714 mmHg 48%
    19:00 +7°C° 0 mm 1 m/S 715 mmHg 49%
    20:00 +6°C° 0 mm 1 m/S 715 mmHg 49%
    21:00 +6°C° 0 mm 1 m/S 715 mmHg 49%
    22:00 +5°C° 0 mm 1 m/S 715 mmHg 46%
    23:00 +5°C° 0 mm 1 m/S 715 mmHg 42%

    26 Januar, Samstag

    Zeit Temperatur Niederschläge Wind Luftdruck Luftfeuchtigkeit
    00:00 +5°C° 0 mm 1 m/S 715 mmHg 39%
    01:00 +5°C° 0 mm 1 m/S 715 mmHg 38%
    02:00 +5°C° 0 mm 1 m/S 715 mmHg 37%
    03:00 +5°C° 0 mm 1 m/S 715 mmHg 36%
    04:00 +5°C° 0 mm 1 m/S 715 mmHg 36%
    05:00 +5°C° 0 mm 1 m/S 714 mmHg 36%
    06:00 +5°C° 0 mm 1 m/S 714 mmHg 35%
    07:00 +7°C° 0 mm 1 m/S 715 mmHg 33%
    08:00 +9°C° 0 mm 1 m/S 716 mmHg 31%
    09:00 +9°C° 0 mm 2 m/S 716 mmHg 29%
    10:00 +12°C° 0 mm 1 m/S 716 mmHg 29%
    11:00 +13°C° 0 mm 1 m/S 716 mmHg 29%
    12:00 +13°C° 0 mm 0 m/S 716 mmHg 29%
    13:00 +15°C° 0 mm 1 m/S 716 mmHg 29%
    14:00 +15°C° 0 mm 1 m/S 715 mmHg 29%
    15:00 +16°C° 0 mm 1 m/S 715 mmHg 29%
    16:00 +14°C° 0 mm 1 m/S 714 mmHg 36%
    17:00 +12°C° 0 mm 1 m/S 714 mmHg 43%
    18:00 +10°C° 0 mm 1 m/S 714 mmHg 50%
    19:00 +10°C° 0 mm 1 m/S 714 mmHg 49%
    20:00 +10°C° 0 mm 1 m/S 714 mmHg 49%
    21:00 +9°C° 0 mm 1 m/S 714 mmHg 48%
    22:00 +9°C° 0 mm 1 m/S 714 mmHg 46%
    23:00 +9°C° 0 mm 1 m/S 714 mmHg 44%
    Mehr zeigen